| time (UTC) | temp C | wind direction | speed KPH | gust KPH | rain 1hr cm | rain 24hr cm | rain mn cm | humidity % | barometer mb |
| 20260504215230 | 21 | 214 | 4.8 | 19.3 | 0.00 | 0.00 | 0.03 | 36 | 1007.4 |
| 20260504214724 | 21 | 267 | 4.8 | 24.1 | 0.00 | 0.00 | 0.03 | 34 | 1007.3 |
| 20260504214218 | 21 | 222 | 9.7 | 24.1 | 0.00 | 0.00 | 0.03 | 33 | 1007.3 |
| 20260504213712 | 22 | 88 | 0.0 | 19.3 | 0.00 | 0.00 | 0.03 | 34 | 1007.3 |
| 20260504213206 | 22 | 196 | 3.2 | 19.3 | 0.00 | 0.00 | 0.03 | 32 | 1007.2 |
| 20260504212700 | 22 | 33 | 0.0 | 17.7 | 0.00 | 0.00 | 0.03 | 32 | 1007.2 |
| 20260504212154 | 23 | 256 | 4.8 | 0.0 | 0.00 | 0.00 | 0.03 | 30 | 1007.1 |
| 20260504211648 | 23 | 243 | 3.2 | 0.0 | 0.00 | 0.00 | 0.03 | 29 | 1007.0 |
| 20260504211142 | 22 | 205 | 1.6 | 0.0 | 0.00 | 0.00 | 0.03 | 30 | 1007.1 |
| 20260504210636 | 22 | 219 | 0.0 | 0.0 | 0.00 | 0.00 | 0.03 | 33 | 1007.0 |
| 20260504210130 | 22 | 194 | 1.6 | 0.0 | 0.00 | 0.00 | 0.03 | 30 | 1007.0 |
| 20260504205624 | 22 | 245 | 1.6 | 0.0 | 0.00 | 0.00 | 0.03 | 30 | 1007.0 |
| 20260504205118 | 22 | 99 | 0.0 | 0.0 | 0.00 | 0.00 | 0.03 | 30 | 1007.0 |
| 20260504204612 | 22 | 124 | 4.8 | 0.0 | 0.00 | 0.00 | 0.03 | 29 | 1007.0 |
| 20260504204106 | 22 | 214 | 4.8 | 0.0 | 0.00 | 0.00 | 0.03 | 29 | 1007.0 |
| 20260504203600 | 22 | 261 | 0.0 | 0.0 | 0.00 | 0.00 | 0.03 | 29 | 1006.9 |
| 20260504203054 | 22 | 206 | 4.8 | 0.0 | 0.00 | 0.00 | 0.03 | 29 | 1007.1 |
| 20260504202548 | 22 | 351 | 1.6 | 0.0 | 0.00 | 0.00 | 0.03 | 29 | 1007.1 |
| 20260504202042 | 22 | 8 | 1.6 | 0.0 | 0.00 | 0.00 | 0.03 | 28 | 1007.0 |
| 20260504201537 | 23 | 177 | 3.2 | 0.0 | 0.00 | 0.00 | 0.03 | 27 | 1007.0 |
| 20260504201030 | 23 | 268 | 4.8 | 0.0 | 0.00 | 0.00 | 0.03 | 27 | 1007.0 |
| 20260504200524 | 23 | 234 | 1.6 | 0.0 | 0.00 | 0.00 | 0.03 | 30 | 1007.1 |
| 20260504200018 | 23 | 165 | 0.0 | 0.0 | 0.00 | 0.00 | 0.03 | 27 | 1007.1 |
| 20260504195512 | 23 | 231 | 4.8 | 0.0 | 0.00 | 0.00 | 0.03 | 27 | 1007.1 |
| 20260504195007 | 23 | 231 | 4.8 | 0.0 | 0.00 | 0.00 | 0.03 | 29 | 1007.2 |
| 20260504194500 | 23 | 222 | 1.6 | 19.3 | 0.00 | 0.00 | 0.03 | 28 | 1007.2 |
| 20260504193954 | 23 | 220 | 1.6 | 19.3 | 0.00 | 0.00 | 0.03 | 27 | 1007.2 |
| 20260504193448 | 23 | 217 | 8.0 | 19.3 | 0.00 | 0.00 | 0.03 | 27 | 1007.2 |
| 20260504192942 | 23 | 188 | 6.4 | 17.7 | 0.00 | 0.00 | 0.03 | 28 | 1007.1 |
| 20260504192436 | 23 | 228 | 6.4 | 19.3 | 0.00 | 0.00 | 0.03 | 27 | 1007.1 |
| 20260504191930 | 23 | 230 | 1.6 | 20.9 | 0.00 | 0.00 | 0.03 | 29 | 1007.1 |
| 20260504191424 | 23 | 204 | 9.7 | 20.9 | 0.00 | 0.00 | 0.03 | 26 | 1007.2 |
| 20260504190918 | 23 | 174 | 3.2 | 19.3 | 0.00 | 0.00 | 0.03 | 27 | 1007.1 |
| 20260504190412 | 23 | 222 | 3.2 | 20.9 | 0.00 | 0.00 | 0.03 | 27 | 1007.2 |
| 20260504185906 | 23 | 212 | 0.0 | 20.9 | 0.00 | 0.00 | 0.03 | 30 | 1007.2 |
| 20260504185400 | 23 | 249 | 4.8 | 0.0 | 0.00 | 0.00 | 0.03 | 28 | 1007.4 |
| 20260504184854 | 23 | 211 | 1.6 | 0.0 | 0.00 | 0.00 | 0.03 | 30 | 1007.4 |
| 20260504184348 | 22 | 255 | 1.6 | 0.0 | 0.00 | 0.00 | 0.03 | 29 | 1007.5 |
| 20260504183842 | 22 | 222 | 4.8 | 0.0 | 0.00 | 0.00 | 0.03 | 27 | 1007.6 |
| 20260504183336 | 22 | 231 | 6.4 | 19.3 | 0.00 | 0.00 | 0.03 | 27 | 1007.5 |
| 20260504182830 | 22 | 226 | 3.2 | 19.3 | 0.03 | 0.00 | 0.03 | 29 | 1007.7 |
| 20260504182325 | 22 | 229 | 4.8 | 0.0 | 0.03 | 0.00 | 0.03 | 28 | 1007.7 |
| 20260504181818 | 22 | 213 | 0.0 | 17.7 | 0.03 | 0.00 | 0.03 | 29 | 1007.8 |
| 20260504181312 | 22 | 221 | 6.4 | 17.7 | 0.03 | 0.00 | 0.03 | 27 | 1007.8 |
| 20260504180806 | 22 | 176 | 3.2 | 0.0 | 0.03 | 0.00 | 0.03 | 28 | 1007.9 |
| 20260504180300 | 22 | 271 | 3.2 | 19.3 | 0.03 | 0.00 | 0.03 | 27 | 1008.0 |
| 20260504175754 | 22 | 216 | 4.8 | 0.0 | 0.03 | 0.00 | 0.03 | 28 | 1008.2 |
| 20260504175248 | 22 | 232 | 4.8 | 0.0 | 0.03 | 0.00 | 0.03 | 29 | 1008.2 |
| 20260504174742 | 22 | 215 | 3.2 | 19.3 | 0.03 | 0.00 | 0.03 | 30 | 1008.3 |
| 20260504174236 | 22 | 196 | 4.8 | 19.3 | 0.03 | 0.00 | 0.03 | 30 | 1008.2 |
| 20260504173730 | 21 | 183 | 4.8 | 19.3 | 0.03 | 0.00 | 0.03 | 30 | 1008.3 |
| 20260504173224 | 21 | 212 | 6.4 | 19.3 | 0.03 | 0.00 | 0.03 | 30 | 1008.3 |
| 20260504172718 | -17 | 195 | 6.4 | 17.7 | 0.03 | 0.00 | 0.03 | 1008.3 | |
| 20260504172212 | 21 | 218 | 4.8 | 24.1 | 0.00 | 0.00 | 0.00 | 29 | 1008.3 |
| 20260504171706 | 21 | 233 | 3.2 | 24.1 | 0.00 | 0.00 | 0.00 | 30 | 1008.3 |
| 20260504171200 | 21 | 242 | 6.4 | 22.5 | 0.00 | 0.00 | 0.00 | 31 | 1008.2 |
| 20260504170654 | 21 | 212 | 4.8 | 22.5 | 0.00 | 0.00 | 0.00 | 32 | 1008.3 |
| 20260504170149 | 21 | 247 | 4.8 | 19.3 | 0.00 | 0.00 | 0.00 | 30 | 1008.4 |
| 20260504150936 | 19 | 250 | 3.2 | 20.9 | 0.00 | 0.00 | 0.00 | 35 | 1009.8 |
| 20260504150430 | 18 | 126 | 1.6 | 17.7 | 0.00 | 0.00 | 0.00 | 36 | 1009.9 |
| 20260504141330 | 17 | 201 | 8.0 | 29.0 | 0.00 | 0.00 | 0.00 | 37 | 1010.5 |
| 20260504140824 | 17 | 233 | 6.4 | 0.0 | 0.00 | 0.00 | 0.00 | 39 | 1010.6 |
| 20260504140318 | 17 | 244 | 1.6 | 0.0 | 0.00 | 0.00 | 0.00 | 40 | 1010.6 |
| 20260504130713 | 14 | 189 | 1.6 | 0.0 | 0.00 | 0.00 | 0.00 | 45 | 1011.5 |
| 20260504130207 | 14 | 226 | 4.8 | 0.0 | 0.00 | 0.00 | 0.00 | 46 | 1011.6 |
| 20260504110449 | 9 | 198 | 1.6 | 0.0 | 0.00 | 0.00 | 0.00 | 56 | 1012.2 |
| 20260504100337 | 6 | 167 | 0.0 | 0.0 | 0.00 | 0.00 | 0.00 | 68 | 1012.2 |
| 20260504081631 | 6 | 356 | 0.0 | 0.0 | 0.00 | 0.00 | 0.00 | 76 | 1012.0 |
| 20260504081125 | 6 | 356 | 0.0 | 0.0 | 0.00 | 0.00 | 0.00 | 76 | 1012.1 |
| 20260504080619 | 6 | 356 | 0.0 | 0.0 | 0.00 | 0.00 | 0.00 | 76 | 1012.0 |
| 20260504080113 | 6 | 356 | 0.0 | 0.0 | 0.00 | 0.00 | 0.00 | 78 | 1011.9 |
| 20260504050749 | 3 | 356 | 0.0 | 0.0 | 0.00 | 0.00 | 0.00 | 80 | 1011.9 |
| 20260504050243 | 2 | 356 | 0.0 | 0.0 | 0.00 | 0.00 | 0.00 | 79 | 1012.0 |
| 20260504045737 | 2 | 356 | 0.0 | 0.0 | 0.00 | 0.00 | 0.00 | 80 | 1012.0 |
| 20260504045231 | 2 | 356 | 0.0 | 0.0 | 0.00 | 0.00 | 0.00 | 81 | 1012.0 |
| 20260504044725 | 2 | 356 | 0.0 | 0.0 | 0.00 | 0.00 | 0.00 | 83 | 1012.0 |
| 20260504044219 | 2 | 356 | 0.0 | 0.0 | 0.00 | 0.00 | 0.00 | 83 | 1012.0 |
| 20260504043713 | 2 | 356 | 0.0 | 0.0 | 0.00 | 0.00 | 0.00 | 83 | 1012.0 |
| 20260504043207 | 2 | 356 | 0.0 | 0.0 | 0.00 | 0.00 | 0.00 | 83 | 1012.0 |
| 20260504042701 | 2 | 356 | 0.0 | 0.0 | 0.00 | 0.00 | 0.00 | 82 | 1012.0 |
| 20260504042155 | 2 | 356 | 0.0 | 0.0 | 0.00 | 0.00 | 0.00 | 82 | 1011.9 |
| 20260504041649 | 1 | 356 | 0.0 | 0.0 | 0.00 | 0.00 | 0.00 | 82 | 1011.9 |
| 20260504041143 | 2 | 356 | 0.0 | 0.0 | 0.00 | 0.00 | 0.00 | 82 | 1011.9 |
| 20260504040637 | 2 | 356 | 0.0 | 0.0 | 0.00 | 0.00 | 0.00 | 81 | 1011.7 |
| 20260504040131 | 2 | 356 | 0.0 | 0.0 | 0.00 | 0.00 | 0.00 | 81 | 1011.7 |
| 20260504035625 | 2 | 356 | 0.0 | 0.0 | 0.00 | 0.00 | 0.00 | 80 | 1011.7 |
| 20260504035119 | 2 | 356 | 0.0 | 0.0 | 0.00 | 0.00 | 0.00 | 79 | 1011.6 |
| 20260504034613 | 2 | 356 | 0.0 | 0.0 | 0.00 | 0.00 | 0.00 | 78 | 1011.6 |
| 20260504034107 | 2 | 356 | 0.0 | 0.0 | 0.00 | 0.00 | 0.00 | 78 | 1011.5 |
| 20260504033601 | 2 | 356 | 0.0 | 0.0 | 0.00 | 0.00 | 0.00 | 77 | 1011.5 |
| 20260504033055 | 2 | 356 | 0.0 | 0.0 | 0.00 | 0.00 | 0.00 | 76 | 1011.4 |
| 20260504032549 | 2 | 356 | 0.0 | 0.0 | 0.00 | 0.00 | 0.00 | 76 | 1011.4 |
| 20260504032043 | 2 | 356 | 0.0 | 0.0 | 0.00 | 0.00 | 0.00 | 75 | 1011.4 |
| 20260504031537 | 3 | 356 | 0.0 | 0.0 | 0.00 | 0.00 | 0.00 | 75 | 1011.4 |
| 20260504031031 | 3 | 356 | 0.0 | 0.0 | 0.00 | 0.00 | 0.00 | 74 | 1011.3 |
| 20260504030525 | 3 | 356 | 0.0 | 0.0 | 0.00 | 0.00 | 0.00 | 72 | 1011.3 |
| 20260504030019 | 3 | 356 | 0.0 | 0.0 | 0.00 | 0.00 | 0.00 | 72 | 1011.2 |
| 20260504025513 | 3 | 356 | 0.0 | 0.0 | 0.00 | 0.00 | 0.00 | 72 | 1011.2 |
| 20260504025007 | 3 | 356 | 0.0 | 0.0 | 0.00 | 0.00 | 0.00 | 71 | 1011.2 |
| 20260504024501 | 3 | 356 | 0.0 | 0.0 | 0.00 | 0.00 | 0.00 | 71 | 1011.2 |
| 20260504023955 | 3 | 356 | 0.0 | 0.0 | 0.00 | 0.00 | 0.00 | 71 | 1011.2 |
| 20260504023449 | 3 | 356 | 0.0 | 0.0 | 0.00 | 0.00 | 0.00 | 70 | 1011.2 |
| 20260504022943 | 4 | 356 | 0.0 | 0.0 | 0.00 | 0.00 | 0.00 | 70 | 1011.2 |
| 20260504022437 | 4 | 356 | 0.0 | 0.0 | 0.00 | 0.00 | 0.00 | 69 | 1011.2 |
| 20260504021931 | 4 | 356 | 0.0 | 0.0 | 0.00 | 0.00 | 0.00 | 69 | 1011.1 |
| 20260504021425 | 4 | 356 | 0.0 | 0.0 | 0.00 | 0.00 | 0.00 | 68 | 1011.1 |
| 20260504020919 | 5 | 356 | 0.0 | 0.0 | 0.00 | 0.00 | 0.00 | 68 | 1011.0 |
| 20260504020413 | 5 | 356 | 0.0 | 0.0 | 0.00 | 0.00 | 0.00 | 67 | 1011.0 |
| 20260504015907 | 5 | 356 | 0.0 | 0.0 | 0.00 | 0.00 | 0.00 | 67 | 1011.0 |
| 20260504015401 | 5 | 356 | 0.0 | 0.0 | 0.00 | 0.00 | 0.00 | 66 | 1011.0 |
| 20260504014855 | 5 | 356 | 0.0 | 0.0 | 0.00 | 0.00 | 0.00 | 65 | 1011.0 |
| 20260504014349 | 5 | 356 | 0.0 | 0.0 | 0.00 | 0.00 | 0.00 | 64 | 1010.9 |
| 20260504013843 | 6 | 356 | 0.0 | 0.0 | 0.00 | 0.00 | 0.00 | 64 | 1010.8 |
| 20260504013337 | 6 | 356 | 0.0 | 0.0 | 0.00 | 0.00 | 0.00 | 63 | 1010.8 |
| 20260504012831 | 6 | 356 | 0.0 | 0.0 | 0.00 | 0.00 | 0.00 | 63 | 1010.7 |
| 20260504012325 | 6 | 356 | 0.0 | 0.0 | 0.00 | 0.00 | 0.00 | 62 | 1010.7 |
| 20260504011819 | 6 | 356 | 0.0 | 0.0 | 0.00 | 0.00 | 0.00 | 61 | 1010.6 |
| 20260504011313 | 6 | 356 | 0.0 | 0.0 | 0.00 | 0.00 | 0.00 | 59 | 1010.5 |
| 20260504010807 | 7 | 356 | 0.0 | 0.0 | 0.00 | 0.00 | 0.00 | 57 | 1010.4 |
| 20260504010301 | 7 | 356 | 0.0 | 0.0 | 0.00 | 0.00 | 0.00 | 57 | 1010.3 |
| 20260504005755 | 7 | 356 | 0.0 | 0.0 | 0.00 | 0.00 | 0.00 | 56 | 1010.3 |
| 20260504005249 | 7 | 356 | 0.0 | 0.0 | 0.00 | 0.00 | 0.00 | 55 | 1010.2 |
| 20260504004743 | 7 | 356 | 0.0 | 0.0 | 0.00 | 0.00 | 0.00 | 55 | 1010.1 |
| 20260504004237 | 7 | 356 | 0.0 | 0.0 | 0.00 | 0.00 | 0.00 | 53 | 1010.1 |
| 20260504003731 | 7 | 356 | 0.0 | 0.0 | 0.00 | 0.00 | 0.00 | 53 | 1010.0 |
| 20260504003225 | 8 | 356 | 0.0 | 0.0 | 0.00 | 0.00 | 0.00 | 52 | 1009.9 |
| 20260504002719 | 8 | 356 | 0.0 | 0.0 | 0.00 | 0.00 | 0.00 | 51 | 1009.9 |
| 20260504002213 | 8 | 356 | 0.0 | 0.0 | 0.00 | 0.00 | 0.00 | 51 | 1009.9 |
| 20260504001707 | 8 | 356 | 0.0 | 0.0 | 0.00 | 0.00 | 0.00 | 50 | 1009.8 |
| 20260504001201 | 8 | 356 | 0.0 | 0.0 | 0.00 | 0.00 | 0.00 | 48 | 1009.7 |
| 20260504000655 | 9 | 356 | 0.0 | 0.0 | 0.00 | 0.00 | 0.00 | 49 | 1009.6 |
| 20260504000149 | 9 | 356 | 0.0 | 0.0 | 0.00 | 0.00 | 0.00 | 48 | 1009.5 |
| 20260503235643 | 10 | 356 | 0.0 | 0.0 | 0.00 | 0.00 | 0.00 | 48 | 1009.5 |
| 20260503235137 | 10 | 356 | 0.0 | 0.0 | 0.00 | 0.00 | 0.00 | 46 | 1009.5 |
| 20260503234631 | 10 | 356 | 0.0 | 0.0 | 0.00 | 0.00 | 0.00 | 46 | 1009.4 |
| 20260503234125 | 10 | 356 | 0.0 | 0.0 | 0.00 | 0.00 | 0.00 | 45 | 1009.3 |
| 20260503233619 | 10 | 356 | 0.0 | 0.0 | 0.00 | 0.00 | 0.00 | 44 | 1009.3 |
| 20260503233113 | 10 | 356 | 0.0 | 0.0 | 0.00 | 0.00 | 0.00 | 45 | 1009.2 |
| 20260503232607 | 10 | 356 | 0.0 | 0.0 | 0.00 | 0.00 | 0.00 | 44 | 1009.2 |
| 20260503232101 | 11 | 356 | 0.0 | 0.0 | 0.00 | 0.00 | 0.00 | 45 | 1009.2 |
| 20260503231555 | 11 | 356 | 0.0 | 0.0 | 0.00 | 0.00 | 0.00 | 44 | 1009.1 |
| 20260503231049 | 11 | 41 | 0.0 | 0.0 | 0.00 | 0.00 | 0.00 | 44 | 1009.0 |
| 20260503230543 | 11 | 163 | 0.0 | 0.0 | 0.00 | 0.00 | 0.00 | 41 | 1009.0 |
| 20260503230037 | 11 | 156 | 0.0 | 0.0 | 0.00 | 0.00 | 0.00 | 41 | 1008.9 |
| 20260503225531 | 11 | 216 | 0.0 | 0.0 | 0.00 | 0.00 | 0.00 | 40 | 1008.8 |
| 20260503225025 | 11 | 180 | 1.6 | 0.0 | 0.00 | 0.00 | 0.00 | 39 | 1008.7 |
| 20260503224519 | 11 | 143 | 0.0 | 0.0 | 0.00 | 0.00 | 0.00 | 41 | 1008.6 |
| 20260503224013 | 11 | 221 | 1.6 | 0.0 | 0.00 | 0.00 | 0.00 | 40 | 1008.5 |
| 20260503223507 | 11 | 108 | 0.0 | 0.0 | 0.00 | 0.00 | 0.00 | 40 | 1008.5 |
| 20260503223001 | 11 | 0 | 0.0 | 0.0 | 0.00 | 0.00 | 0.00 | 43 | 1008.5 |
| 20260503222455 | 11 | 299 | 0.0 | 0.0 | 0.00 | 0.00 | 0.00 | 41 | 1008.4 |
| 20260503221949 | 11 | 179 | 0.0 | 0.0 | 0.00 | 0.00 | 0.00 | 40 | 1008.4 |
| 20260503221443 | 11 | 190 | 1.6 | 0.0 | 0.00 | 0.00 | 0.00 | 41 | 1008.3 |
| 20260503220937 | 11 | 15 | 0.0 | 0.0 | 0.00 | 0.00 | 0.00 | 40 | 1008.2 |
| 20260503220431 | 11 | 129 | 0.0 | 0.0 | 0.00 | 0.00 | 0.00 | 44 | 1008.2 |
| 20260503215925 | 12 | 95 | 0.0 | 0.0 | 0.00 | 0.00 | 0.00 | 42 | 1008.1 |
| 20260503215419 | 12 | 235 | 1.6 | 0.0 | 0.00 | 0.00 | 0.00 | 39 | 1008.0 |